User: anonymous   Login
Location: Unspecified
(0.0000°N, 0.0000°E)
Time: 06:08:28
(UTC+02:00)
Language:

SWIFT - Orbit

View from above orbital plane
View from above orbital plane
View from above satellite
View from above satellite

Ground track
Ground track

The orbit data is extracted from the following two-line orbital elements,

1 28485U 04047A   17289.51326991 +.00001211 +00000-0 +53856-4 0  9991
2 28485 020.5576 006.4742 0011239 332.3045 027.6790 15.03890033706470
Epoch (UTC): 16 October 2017 12:19:06
Eccentricity: 0.0011239
inclination: 20.5576°
perigee height: 547 km
apogee height: 563 km
right ascension of ascending node: 6.4742°
argument of perigee: 332.3045°
revolutions per day: 15.03890033
mean anomaly at epoch: 27.6790°
orbit number at epoch: 70647

The dashed part of the orbit path shows where the satellite is in the earth's shadow,  

DLR